Time,TemperatureF,DewpointF,PressureIn,WindDirection,WindDirectionDegrees,WindSpeedMPH,WindSpeedGustMPH,Humidity,HourlyPrecipIn,Conditions,Clouds,dailyrainin,SoftwareType,DateUTC
2013-03-05 00:00:00,75.0,61.1,30.07,East,96,6.0,13.0,62,0.00,CLR,,0.00,WeatherDisplay:10.37,2013-03-05 06:00:00,
2013-03-05 00:15:00,75.0,61.5,30.06,East,93,7.0,14.0,63,0.00,CLR,,0.00,WeatherDisplay:10.37,2013-03-05 06:15:00,
2013-03-05 00:30:00,75.0,62.0,30.05,East,95,6.0,14.0,64,0.00,CLR,,0.00,WeatherDisplay:10.37,2013-03-05 06:30:00,
2013-03-05 00:45:00,75.1,62.1,30.04,East,92,9.0,16.0,64,0.00,CLR,,0.00,WeatherDisplay:10.37,2013-03-05 06:45:00,
2013-03-05 01:00:00,75.1,62.5,30.03,ESE,103,13.0,17.0,65,0.00,CLR,,0.00,WeatherDisplay:10.37,2013-03-05 07:00:00,
2013-03-05 01:15:00,75.1,63.0,30.02,ESE,102,6.0,14.0,66,0.00,CLR,,0.00,WeatherDisplay:10.37,2013-03-05 07:15:00,
2013-03-05 01:30:00,75.0,62.4,30.01,East,96,7.0,14.0,65,0.00,CLR,,0.00,WeatherDisplay:10.37,2013-03-05 07:30:00,
2013-03-05 01:45:00,75.2,63.5,30.01,ESE,105,8.0,17.0,67,0.00,CLR,,0.00,WeatherDisplay:10.37,2013-03-05 07:45:00,
2013-03-05 02:00:00,75.0,62.9,30.00,ESE,102,8.0,14.0,66,0.00,CLR,,0.00,WeatherDisplay:10.37,2013-03-05 08:00:00,
2013-03-05 02:15:00,74.9,62.8,30.00,ESE,102,6.0,15.0,66,0.00,CLR,,0.00,WeatherDisplay:10.37,2013-03-05 08:15:00,
2013-03-05 02:30:00,74.8,62.7,30.00,East,93,9.0,20.0,66,0.00,CLR,,0.00,WeatherDisplay:10.37,2013-03-05 08:30:00,
2013-03-05 02:45:00,74.8,62.6,30.00,East,98,8.0,12.0,66,0.00,CLR,,0.00,WeatherDisplay:10.37,2013-03-05 08:45:00,
2013-03-05 03:00:00,74.6,62.1,30.00,East,92,8.0,16.0,65,0.00,CLR,,0.00,WeatherDisplay:10.37,2013-03-05 09:00:00,
2013-03-05 03:15:00,74.6,62.1,30.00,East,92,8.0,14.0,65,0.00,CLR,,0.00,WeatherDisplay:10.37,2013-03-05 09:15:00,
2013-03-05 03:30:00,74.6,62.5,30.00,East,99,9.0,16.0,66,0.00,CLR,,0.00,WeatherDisplay:10.37,2013-03-05 09:30:00,
2013-03-05 03:45:00,74.6,62.5,30.00,East,99,9.0,13.0,66,0.00,CLR,,0.00,WeatherDisplay:10.37,2013-03-05 09:45:00,
2013-03-05 04:00:00,74.6,62.5,30.00,ESE,105,8.0,14.0,66,0.00,CLR,,0.00,WeatherDisplay:10.37,2013-03-05 10:00:00,
2013-03-05 04:15:00,74.7,62.6,30.01,ESE,104,5.0,14.0,66,0.00,CLR,,0.00,WeatherDisplay:10.37,2013-03-05 10:15:00,
2013-03-05 04:30:00,74.8,62.7,30.01,ESE,110,9.0,15.0,66,0.00,CLR,,0.00,WeatherDisplay:10.37,2013-03-05 10:30:00,
2013-03-05 04:45:00,74.8,62.2,30.01,ESE,109,9.0,15.0,65,0.00,CLR,,0.00,WeatherDisplay:10.37,2013-03-05 10:45:00,
2013-03-05 05:00:00,74.8,62.2,30.02,ESE,108,7.0,14.0,65,0.00,CLR,,0.00,WeatherDisplay:10.37,2013-03-05 11:00:00,
2013-03-05 05:15:00,74.9,62.8,30.03,ESE,112,7.0,13.0,66,0.00,CLR,,0.00,WeatherDisplay:10.37,2013-03-05 11:15:00,
2013-03-05 05:30:00,74.9,62.8,30.02,ESE,109,10.0,14.0,66,0.00,CLR,,0.00,WeatherDisplay:10.37,2013-03-05 11:30:00,
2013-03-05 05:45:00,74.8,62.7,30.03,East,89,6.0,12.0,66,0.00,CLR,,0.00,WeatherDisplay:10.37,2013-03-05 11:45:00,
2013-03-05 06:00:00,74.9,62.8,30.03,ESE,106,9.0,14.0,66,0.00,CLR,,0.00,WeatherDisplay:10.37,2013-03-05 12:00:00,
2013-03-05 06:15:00,75.1,63.8,30.04,ESE,103,7.0,15.0,68,0.00,CLR,,0.00,WeatherDisplay:10.37,2013-03-05 12:15:00,
2013-03-05 06:30:00,75.1,63.8,30.04,ESE,104,8.0,15.0,68,0.00,CLR,,0.00,WeatherDisplay:10.37,2013-03-05 12:30:00,
2013-03-05 06:45:00,75.2,63.5,30.05,East,99,5.0,16.0,67,0.00,CLR,,0.00,WeatherDisplay:10.37,2013-03-05 12:45:00,
2013-03-05 07:00:00,75.8,63.6,30.04,ESE,106,9.0,15.0,66,0.00,CLR,,0.00,WeatherDisplay:10.37,2013-03-05 13:00:00,
2013-03-05 07:15:00,76.2,63.1,30.05,ESE,102,9.0,15.0,64,0.00,CLR,,0.00,WeatherDisplay:10.37,2013-03-05 13:15:00,
2013-03-05 07:30:00,77.2,63.2,30.05,ESE,108,12.0,15.0,62,0.00,CLR,,0.00,WeatherDisplay:10.37,2013-03-05 13:30:00,
2013-03-05 07:45:00,77.6,63.5,30.05,ESE,111,12.0,15.0,62,0.00,CLR,,0.00,WeatherDisplay:10.37,2013-03-05 13:45:00,
2013-03-05 08:00:00,76.9,64.3,30.06,ESE,106,12.0,16.0,65,0.00,CLR,,0.00,WeatherDisplay:10.37,2013-03-05 14:00:00,
2013-03-05 08:15:00,76.9,65.1,30.06,ESE,110,13.0,15.0,67,0.00,CLR,,0.00,WeatherDisplay:10.37,2013-03-05 14:15:00,
2013-03-05 08:30:00,78.1,64.4,30.07,ESE,112,10.0,17.0,63,0.00,CLR,,0.00,WeatherDisplay:10.37,2013-03-05 14:30:00,
2013-03-05 08:45:00,78.8,64.2,30.07,ESE,111,13.0,20.0,61,0.00,CLR,,0.00,WeatherDisplay:10.37,2013-03-05 14:45:00,
2013-03-05 09:00:00,78.9,64.3,30.07,ESE,108,12.0,18.0,61,0.00,CLR,,0.00,WeatherDisplay:10.37,2013-03-05 15:00:00,
2013-03-05 09:15:00,79.1,64.0,30.08,ESE,103,9.0,16.0,60,0.00,CLR,,0.00,WeatherDisplay:10.37,2013-03-05 15:15:00,
2013-03-05 09:30:00,79.3,63.7,30.07,ESE,116,12.0,16.0,59,0.00,CLR,,0.00,WeatherDisplay:10.37,2013-03-05 15:30:00,
2013-03-05 09:45:00,79.8,63.2,30.08,ESE,106,13.0,17.0,57,0.00,CLR,,0.00,WeatherDisplay:10.37,2013-03-05 15:45:00,
2013-03-05 10:00:00,79.8,64.2,30.08,ESE,109,10.0,16.0,59,0.00,CLR,,0.00,WeatherDisplay:10.37,2013-03-05 16:00:00,
2013-03-05 10:15:00,80.0,65.4,30.07,ESE,102,8.0,17.0,61,0.00,CLR,,0.00,WeatherDisplay:10.37,2013-03-05 16:15:00,
2013-03-05 10:30:00,79.9,64.7,30.07,ESE,105,10.0,17.0,60,0.00,CLR,,0.00,WeatherDisplay:10.37,2013-03-05 16:30:00,
2013-03-05 10:45:00,79.9,65.2,30.07,ESE,106,13.0,18.0,61,0.00,CLR,,0.00,WeatherDisplay:10.37,2013-03-05 16:45:00,
2013-03-05 11:00:00,79.6,64.5,30.06,ESE,111,12.0,16.0,60,0.00,CLR,,0.00,WeatherDisplay:10.37,2013-03-05 17:00:00,
2013-03-05 11:15:00,79.6,64.0,30.06,ESE,109,8.0,16.0,59,0.00,CLR,,0.00,WeatherDisplay:10.37,2013-03-05 17:15:00,
2013-03-05 11:30:00,79.6,64.5,30.05,ESE,117,13.0,17.0,60,0.00,CLR,,0.00,WeatherDisplay:10.37,2013-03-05 17:30:00,
2013-03-05 11:45:00,79.5,64.9,30.04,ESE,118,9.0,17.0,61,0.00,CLR,,0.00,WeatherDisplay:10.37,2013-03-05 17:45:00,
2013-03-05 12:00:00,79.2,64.6,30.04,ESE,116,12.0,16.0,61,0.00,CLR,,0.00,WeatherDisplay:10.37,2013-03-05 18:00:00,
2013-03-05 12:15:00,79.6,64.5,30.03,ESE,116,10.0,17.0,60,0.00,CLR,,0.00,WeatherDisplay:10.37,2013-03-05 18:15:00,
2013-03-05 12:30:00,79.3,64.7,30.03,ESE,117,8.0,16.0,61,0.00,CLR,,0.00,WeatherDisplay:10.37,2013-03-05 18:30:00,
2013-03-05 12:45:00,79.2,65.1,30.02,ESE,112,9.0,15.0,62,0.00,CLR,,0.00,WeatherDisplay:10.37,2013-03-05 18:45:00,
2013-03-05 13:00:00,79.4,65.2,30.01,ESE,113,9.0,14.0,62,0.00,CLR,,0.00,WeatherDisplay:10.37,2013-03-05 19:00:00,
2013-03-05 13:15:00,79.3,65.2,30.01,ESE,113,9.0,14.0,62,0.00,CLR,,0.00,WeatherDisplay:10.37,2013-03-05 19:15:00,
2013-03-05 13:30:00,79.6,65.0,30.00,ESE,112,8.0,14.0,61,0.00,CLR,,0.00,WeatherDisplay:10.37,2013-03-05 19:30:00,
2013-03-05 13:45:00,79.5,64.9,30.00,ESE,114,10.0,14.0,61,0.00,CLR,,0.00,WeatherDisplay:10.37,2013-03-05 19:45:00,
2013-03-05 14:00:00,79.6,65.0,29.99,ESE,110,8.0,14.0,61,0.00,CLR,,0.00,WeatherDisplay:10.37,2013-03-05 20:00:00,
2013-03-05 14:15:00,79.6,65.0,29.99,ESE,112,7.0,13.0,61,0.00,CLR,,0.00,WeatherDisplay:10.37,2013-03-05 20:15:00,
2013-03-05 14:30:00,79.7,64.5,29.99,ESE,109,9.0,13.0,60,0.00,CLR,,0.00,WeatherDisplay:10.37,2013-03-05 20:30:00,
2013-03-05 14:45:00,79.8,64.7,29.98,ESE,111,8.0,13.0,60,0.00,CLR,,0.00,WeatherDisplay:10.37,2013-03-05 20:45:00,
2013-03-05 15:00:00,79.4,64.8,29.98,ESE,107,10.0,14.0,61,0.00,CLR,,0.00,WeatherDisplay:10.37,2013-03-05 21:00:00,
2013-03-05 15:15:00,79.7,66.0,29.98,ESE,109,8.0,13.0,63,0.00,CLR,,0.00,WeatherDisplay:10.37,2013-03-05 21:15:00,
2013-03-05 15:30:00,79.4,65.7,29.98,East,99,6.0,13.0,63,0.00,CLR,,0.00,WeatherDisplay:10.37,2013-03-05 21:30:00,
2013-03-05 15:45:00,79.0,65.3,29.98,East,101,6.0,12.0,63,0.00,CLR,,0.00,WeatherDisplay:10.37,2013-03-05 21:45:00,
2013-03-05 16:00:00,78.6,65.9,29.98,ESE,103,6.0,12.0,65,0.00,CLR,,0.00,WeatherDisplay:10.37,2013-03-05 22:00:00,
2013-03-05 16:15:00,78.4,65.2,29.99,ESE,107,6.0,10.0,64,0.00,CLR,,0.00,WeatherDisplay:10.37,2013-03-05 22:15:00,
2013-03-05 16:26:00,78.4,65.2,29.99,East,92,3.0,10.0,64,0.00,CLR,,0.00,WeatherDisplay:10.37,2013-03-05 22:26:00,
2013-03-05 16:45:00,78.5,65.7,29.99,ENE,78,6.0,10.0,65,0.00,CLR,,0.00,WeatherDisplay:10.37,2013-03-05 22:45:00,
2013-03-05 17:00:00,78.4,65.2,30.00,East,79,5.0,12.0,64,0.00,CLR,,0.00,WeatherDisplay:10.37,2013-03-05 23:00:00,
2013-03-05 17:15:00,78.5,65.3,30.01,East,79,5.0,9.0,64,0.00,CLR,,0.00,WeatherDisplay:10.37,2013-03-05 23:15:00,
2013-03-05 17:30:00,78.2,65.0,30.01,East,82,6.0,12.0,64,0.00,CLR,,0.00,WeatherDisplay:10.37,2013-03-05 23:30:00,
2013-03-05 17:45:00,78.0,65.3,30.01,East,97,2.0,12.0,65,0.00,CLR,,0.00,WeatherDisplay:10.37,2013-03-05 23:45:00,
2013-03-05 18:00:00,77.9,65.6,30.01,East,83,5.0,13.0,66,0.00,CLR,,0.00,WeatherDisplay:10.37,2013-03-06 00:00:00,
2013-03-05 18:15:00,77.9,65.6,30.01,East,93,7.0,12.0,66,0.00,CLR,,0.00,WeatherDisplay:10.37,2013-03-06 00:15:00,
2013-03-05 18:30:00,77.7,65.0,30.02,East,81,7.0,12.0,65,0.00,CLR,,0.00,WeatherDisplay:10.37,2013-03-06 00:30:00,
2013-03-05 18:45:00,77.7,65.0,30.03,East,81,2.0,12.0,65,0.00,CLR,,0.00,WeatherDisplay:10.37,2013-03-06 00:45:00,
2013-03-05 19:00:00,77.7,65.0,30.03,East,96,5.0,12.0,65,0.00,CLR,,0.00,WeatherDisplay:10.37,2013-03-06 01:00:00,
2013-03-05 19:15:00,77.7,65.0,30.03,East,86,3.0,10.0,65,0.00,CLR,,0.00,WeatherDisplay:10.37,2013-03-06 01:15:00,
2013-03-05 19:30:00,77.7,64.5,30.04,East,83,3.0,10.0,64,0.00,CLR,,0.00,WeatherDisplay:10.37,2013-03-06 01:30:00,
2013-03-05 19:45:00,77.7,64.5,30.05,East,84,2.0,10.0,64,0.00,CLR,,0.00,WeatherDisplay:10.37,2013-03-06 01:45:00,
2013-03-05 20:00:00,77.7,65.4,30.06,East,88,3.0,12.0,66,0.00,CLR,,0.00,WeatherDisplay:10.37,2013-03-06 02:00:00,
2013-03-05 20:15:00,77.6,65.3,30.06,ENE,78,6.0,10.0,66,0.00,CLR,,0.00,WeatherDisplay:10.37,2013-03-06 02:15:00,
2013-03-05 20:30:00,77.4,64.7,30.06,ENE,78,6.0,12.0,65,0.00,CLR,,0.00,WeatherDisplay:10.37,2013-03-06 02:30:00,
2013-03-05 20:45:00,77.4,64.7,30.06,ENE,74,5.0,12.0,65,0.00,CLR,,0.00,WeatherDisplay:10.37,2013-03-06 02:45:00,
2013-03-05 21:00:00,77.4,64.7,30.08,East,82,3.0,10.0,65,0.00,CLR,,0.00,WeatherDisplay:10.37,2013-03-06 03:00:00,
2013-03-05 21:15:00,77.4,65.6,30.08,East,80,5.0,10.0,67,0.00,CLR,,0.00,WeatherDisplay:10.37,2013-03-06 03:15:00,
2013-03-05 21:30:00,77.3,65.1,30.08,ENE,78,8.0,12.0,66,0.00,CLR,,0.00,WeatherDisplay:10.37,2013-03-06 03:30:00,
2013-03-05 21:45:00,77.2,65.0,30.08,ENE,76,5.0,12.0,66,0.00,CLR,,0.00,WeatherDisplay:10.37,2013-03-06 03:45:00,
2013-03-05 22:00:00,77.1,64.9,30.08,East,82,5.0,12.0,66,0.00,CLR,,0.00,WeatherDisplay:10.37,2013-03-06 04:00:00,
2013-03-05 22:15:00,77.0,65.2,30.07,East,79,7.0,13.0,67,0.00,CLR,,0.00,WeatherDisplay:10.37,2013-03-06 04:15:00,
2013-03-05 22:30:00,76.8,63.7,30.07,East,82,6.0,15.0,64,0.00,CLR,,0.00,WeatherDisplay:10.37,2013-03-06 04:30:00,
2013-03-05 22:45:00,76.7,64.0,30.07,ENE,74,5.0,12.0,65,0.00,CLR,,0.00,WeatherDisplay:10.37,2013-03-06 04:45:00,
2013-03-05 23:00:00,76.6,64.4,30.08,ENE,70,7.0,12.0,66,0.00,CLR,,0.00,WeatherDisplay:10.37,2013-03-06 05:00:00,
2013-03-05 23:15:00,76.6,64.4,30.07,East,86,6.0,12.0,66,0.00,CLR,,0.00,WeatherDisplay:10.37,2013-03-06 05:15:00,
2013-03-05 23:30:00,76.6,63.5,30.07,ENE,74,7.0,12.0,64,0.00,CLR,,0.00,WeatherDisplay:10.37,2013-03-06 05:30:00,
2013-03-05 23:45:00,76.5,63.4,30.07,ENE,66,5.0,10.0,64,0.00,CLR,,0.00,WeatherDisplay:10.37,2013-03-06 05:45:00,